EDT,Max TemperatureF,Mean TemperatureF,Min TemperatureF,Max Dew PointF,MeanDew PointF,Min DewpointF,Max Humidity, Mean Humidity, Min Humidity, Max Sea Level PressureIn, Mean Sea Level PressureIn, Min Sea Level PressureIn, Max VisibilityMiles, Mean VisibilityMiles, Min VisibilityMiles, Max Wind SpeedMPH, Mean Wind SpeedMPH, Max Gust SpeedMPH,PrecipitationIn, CloudCover, Events, WindDirDegrees
2013-6-1,74,68,62,66,62,59,98,81,61,29.79,29.72,29.65,10,10,7,22,10,31,0.00,7,Rain,174
2013-6-2,62,52,41,62,46,39,100,84,64,30.03,29.86,29.64,10,9,2,20,9,25,0.00,7,Rain,296
2013-6-3,66,51,36,44,39,35,100,67,33,30.11,30.06,30.02,10,9,0,14,3,18,0.00,0,Fog,250
2013-6-4,70,58,46,45,42,37,85,56,35,30.20,30.16,30.12,10,10,10,13,4,,0.00,2,,23
2013-6-5,66,61,56,48,41,33,68,52,31,30.17,30.10,30.02,10,10,10,13,7,21,0.00,6,Rain,66
2013-6-6,70,62,53,51,44,38,84,57,31,30.02,29.95,29.90,10,10,10,13,8,16,0.00,6,Rain,69
2013-6-7,74,62,49,48,42,34,89,53,23,29.97,29.92,29.86,10,10,10,14,5,20,0.00,2,,18
2013-6-8,72,62,51,54,50,46,95,67,41,30.05,29.98,29.92,10,10,5,7,2,,0.00,1,,71
2013-6-9,79,67,55,59,54,51,88,64,42,30.06,30.00,29.91,10,10,10,14,8,24,0.00,4,Rain,84
2013-6-10,70,66,61,64,60,51,99,86,55,29.91,29.82,29.78,10,8,2,12,7,17,0.00,6,Rain,55
2013-6-11,79,66,53,65,59,53,100,83,55,29.93,29.87,29.83,10,6,0,12,2,20,0.00,2,Fog,219
2013-6-12,75,66,57,68,63,58,100,90,65,29.92,29.83,29.68,10,7,2,14,2,,0.00,3,Rain,67
2013-6-13,71,64,55,65,57,53,99,77,55,30.01,29.85,29.66,10,9,2,18,8,25,0.00,2,Rain,328
2013-6-14,76,63,50,53,48,41,98,64,29,30.13,30.07,30.02,10,10,7,14,5,,0.00,0,,328
2013-6-15,75,62,50,61,56,50,99,77,53,30.06,29.99,29.85,10,10,10,16,3,22,0.00,3,,170
2013-6-16,77,68,59,64,61,54,100,81,44,29.90,29.85,29.78,10,6,0,16,7,23,0.00,4,Fog-Rain,236
2013-6-17,83,69,55,64,56,50,99,71,33,29.95,29.90,29.86,10,9,5,13,4,33,0.00,3,Rain,233
2013-6-18,72,63,54,62,47,39,96,60,31,30.09,30.03,29.95,10,10,7,13,8,21,0.00,2,,56
2013-6-19,73,60,47,49,42,36,84,52,26,30.19,30.14,30.10,10,10,10,10,3,,0.00,0,,81
2013-6-20,81,65,49,59,50,45,97,60,29,30.20,30.16,30.13,10,9,7,8,2,,0.00,0,,173
2013-6-21,83,73,63,64,59,52,88,63,47,30.17,30.09,29.97,10,10,10,20,7,29,0.00,1,Rain,160
2013-6-22,84,75,66,68,65,59,96,77,44,30.11,30.03,29.98,10,9,5,15,3,20,0.00,4,Rain,215
2013-6-23,85,76,66,69,64,58,97,70,40,30.03,29.99,29.93,10,9,4,21,7,25,0.00,1,,185
2013-6-24,84,76,67,69,65,57,97,77,43,30.04,29.98,29.88,10,9,7,16,8,21,0.00,3,Rain,200
2013-6-25,75,70,65,69,66,62,100,91,73,29.98,29.89,29.83,10,9,3,17,5,23,0.00,5,Rain,202
2013-6-26,82,72,62,69,67,62,100,84,61,29.85,29.80,29.76,10,7,0,10,3,16,0.00,4,Fog,138
2013-6-27,84,74,65,69,66,61,99,80,44,29.78,29.74,29.67,10,10,4,14,3,17,0.00,2,Rain,281
2013-6-28,79,70,60,66,61,56,100,78,48,29.67,29.61,29.56,10,9,1,15,4,21,0.00,4,,296
2013-6-29,71,65,59,64,61,56,100,85,61,29.78,29.66,29.59,10,10,2,13,5,17,0.00,6,Rain,19
2013-6-30,81,70,59,60,51,40,91,57,26,30.01,29.89,29.79,10,10,7,13,5,22,0.00,4,,4